Altenburg-Nobitz Airport EDAC

Flugplatz Daten

Name: Altenburg-Nobitz Airport

Ident: EDAC

Lat: 50,98194504

Long: 12,50638866

Platzhöhe: 640 ft

IataCode: AOC

City: Altenburg

Homepage: http://www.leipzig-altenburg-airport.de/

Metar

2022/08/15 17:50
EDAC 151750Z 36004KT CAVOK 22/18 Q1005

Taf

Gewünschte Webcam nicht vorhanden? Dann fügen Sie eine hinzu. Sie wird dann so schnell wie möglich freigeschaltet
Url: Title: